Flag for Algeria Weather past 2 weeks in Constantine, Algeria

Now
86 °F

Scattered clouds.


Feels Like: 83 °F
Forecast: 62 / 78 °F
Wind: 12 mph from Northwest

Location: Constantine Airport

Current Time: May 29, 2015 at 5:35:55 PM

Latest Report: May 29, 2015 at 5:00 PM


Visibility: N/A

Pressure: 29.92 "Hg

Humidity: 25%

Dew point: 46 °F

Location of ConstantineLocation

Historic Weather in Constantine — Graph

°F

Constantine temperature yesterday

Maximum temperature yesterday: 79 °F (at 4:00 PM)
Minimum temperature yesterday: 45 °F (at 3:30 AM)
Average temperature yesterday: 62 °F

Past Weeks' High & Low Weather Summary

 TemperatureHumidityPressure
High95 °F (May 14, 4:00 PM)94% (May 17, 7:30 AM)30.24 "Hg (May 17, 7:30 AM)
Low41 °F (May 22, 3:30 AM)12% (May 14, 5:00 PM)29.86 "Hg (May 19, 2:00 PM)
Average61 °F63%30.06 "Hg
* Reported May 14 4:00 PM — May 29 4:30 PM, Constantine, Weather by CustomWeather, © 2015

Note: Actual official high and low records may vary slightly from our data, if they occured in-between our weather recording intervals... More about our weather records

Advertising

Constantine weather history for previous 24 hours

 ConditionsComfort  
Time TempWeatherWind HumidityBarometerVisibility
4:30 PM
Fri, May 29
88 °FPassing clouds.12 mph24%29.95 "HgN/A
4:00 PM90 °FPassing clouds.7 mph22%29.95 "HgN/A
3:30 PM90 °FPassing clouds.12 mph22%29.95 "HgN/A
3:00 PM88 °FPassing clouds.12 mph24%29.95 "HgN/A
2:30 PM88 °FScattered clouds.12 mph25%29.98 "HgN/A
2:00 PM88 °FScattered clouds.12 mph25%29.98 "HgN/A
1:30 PM88 °FScattered clouds.14 mph25%30.01 "HgN/A
1:00 PM88 °FScattered clouds.16 mph25%30.01 "HgN/A
12:30 PM88 °FScattered clouds.16 mph25%30.01 "HgN/A
12:00 PM86 °FScattered clouds.16 mph27%30.04 "HgN/A
11:30 AM84 °FPassing clouds.5 mph31%30.04 "HgN/A
11:00 AM82 °FPassing clouds.9 mph32%30.04 "HgN/A
10:30 AM81 °FScattered clouds.5 mph32%30.04 "HgN/A
10:00 AM79 °FScattered clouds.5 mph34%30.04 "HgN/A
9:30 AM75 °FScattered clouds.5 mph39%30.07 "HgN/A
9:00 AM73 °FScattered clouds.5 mph41%30.07 "HgN/A
8:30 AM72 °FPassing clouds.6 mph44%30.07 "HgN/A
8:00 AM68 °FSunny.6 mph49%30.07 "Hg10 mi
7:30 AM64 °FSunny.5 mph56%30.07 "Hg10 mi
7:00 AM61 °FSunny.3 mph59%30.07 "Hg10 mi
6:30 AM59 °FSunny.6 mph63%30.04 "Hg10 mi
6:00 AM55 °FSunny.7 mph67%30.04 "Hg10 mi
5:30 AM55 °FSunny.7 mph67%30.04 "Hg10 mi
5:00 AM54 °FClear.2 mph72%30.04 "Hg10 mi
4:30 AM55 °FClear.3 mph72%30.04 "Hg10 mi
3:30 AM55 °FClear.5 mph67%30.07 "Hg10 mi
3:00 AM55 °FClear.6 mph72%30.07 "Hg10 mi
2:30 AM55 °FClear.2 mph72%30.07 "Hg10 mi
2:00 AM55 °FClear.5 mph67%30.07 "Hg10 mi
1:30 AM57 °FClear.7 mph67%30.09 "Hg10 mi
1:00 AM55 °FClear.6 mph72%30.09 "Hg10 mi
12:30 AM57 °FClear.3 mph72%30.12 "Hg10 mi
11:00 PM
Thu, May 28
59 °FClear.3 mph68%30.12 "Hg10 mi
10:30 PM59 °FClear.7 mph68%30.12 "Hg10 mi
10:00 PM59 °FClear.5 mph63%30.12 "Hg10 mi
9:30 PM63 °FClear.5 mph59%30.12 "Hg10 mi
9:00 PM64 °FClear.7 mph56%30.12 "Hg10 mi
8:30 PM64 °FClear.5 mph56%30.09 "Hg10 mi
8:00 PM68 °FClear.7 mph49%30.09 "Hg10 mi
7:30 PM68 °FSunny.9 mph53%30.09 "Hg10 mi
7:00 PM72 °FSunny.12 mph47%30.09 "Hg10 mi
6:30 PM75 °FPassing clouds.10 mph41%30.09 "HgN/A
6:00 PM75 °FSunny.12 mph39%30.09 "Hg10 mi
5:30 PM77 °FSunny.7 mph32%30.09 "Hg10 mi
5:00 PM77 °FSunny.8 mph30%30.09 "Hg10 mi
Weather by CustomWeather, © 2015

See weather overviewHow to use our weather pages